Starlink 3732

operational
NORAD ID: 52126 Int'l Des: 2022-029 Owner: SPXS Country: US Constellation: starlink
LEOCIRCULAR

关于 Starlink 3732

正在加载描述...

实时位置

正在加载3D地球...

即将过境

高度历史

Altitude vs Time

uPlot chart will show altitude changes over time

两行轨道根数

1 52126U 22029AQ 25353.41424388 .00000050 00000-0 21210-4 0 9998
2 52126 53.2199 69.4917 0001473 82.7936 277.3224 15.08836577208808
Epoch: Dec 19, 2025 • Age: 12 hours

当前状态

高度 545.3 km
速度 7.60 km/s
星下点 53.31°N, 110.34°E
发射日期 Mar 19, 2022
运行时间 3.7 years
类型 internet

技术详情

分类 Payload
质量 297.00 kg
干质量 275.00 kg
总质量 297.00 kg
长度 0.20 m
直径 2.80 m
跨度 9.00 m
形状 Box + pan
制造商 SPXS
平台类型 Starlink
阶段状态 In Orbit
所有者/国家 SPXS/US

大型星座

Loading constellations...